Regional Weather Roundup
Issued by NWS Charleston, WV

Home | Current Version | Previous Version | Text Only | Print | Product List | Glossary Off
Versions: 1 2 3 4 5 6 7 8 9 10 11 12 13 14 15 16 17 18 19 20 21 22 23 24 25 26 27 28 29 30 31 32 33 34 35 36 37 38 39 40 41 42 43 44 45 46 47 48 49 50

000
ASUS41 KRLX 021010
RWRRLX
West Virginia Regional Weather Roundup
National Weather Service Charleston WV
500 AM EST FRI DEC 02 2016

Note: "fair" indicates few or no clouds below 12,000 feet with no
significant weather and/or obstructions to visibility.

WVZ003-021100-
Northern Panhandle of West Virginia

CITY           SKY/WX    TMP DP  RH WIND       PRES   REMARKS
WHEELING       CLEAR     33  25  72 SW6       30.01S
$$

WVZ009-021100-
Northwest West Virginia

CITY           SKY/WX    TMP DP  RH WIND       PRES   REMARKS
PARKERSBURG    CLOUDY    39  27  62 W8        30.09S
$$

WVZ006-021100-
Western West Virginia

CITY           SKY/WX    TMP DP  RH WIND       PRES   REMARKS
HUNTINGTON     CLEAR     31  28  89 S3        30.11R
$$

WVZ015-021100-
West Central West Virginia

CITY           SKY/WX    TMP DP  RH WIND       PRES   REMARKS
CHARLESTON     CLEAR     36  29  75 SW8       30.09R
$$

WVZ022-031-021100-
North Central West Virginia

CITY           SKY/WX    TMP DP  RH WIND       PRES   REMARKS
CLARKSBURG     CLOUDY    38  28  67 W6        30.04S
MORGANTOWN     CLEAR     37  26  64 SW3       30.04R
$$

WVZ025-035-042-045-021100-
Southern West Virginia

CITY           SKY/WX    TMP DP  RH WIND       PRES   REMARKS
BECKLEY        CLOUDY    31  27  85 SW5       30.05R
LOGAN            N/A     34  30  86 CALM      30.09R
BLUEFIELD      CLEAR     30  25  81 W8        30.05R
LEWISBURG      MOCLDY    36  26  66 W7        30.03R
$$

WVZ047-021100-
Northern Mountains of West Virginia

CITY           SKY/WX    TMP DP  RH WIND       PRES   REMARKS
ELKINS         CLOUDY    35  25  66 W7        30.03R
$$

WVZ052-021100-
Eastern Panhandle of West Virginia

CITY           SKY/WX    TMP DP  RH WIND       PRES   REMARKS
MARTINSBURG    MOCLDY    41  26  55 W12       30.00R
PETERSBURG     CLOUDY    43  29  58 W6        30.02S
$$




USA.gov is the U.S. government's official web portal to all federal, state and local government web resources and services.